Regional Weather Roundup
Issued by NWS Sterling, VA

Home | Current Version | Previous Version | Text Only | Print | Product List | Glossary On
Versions: 1 2 3 4 5 6 7 8 9 10 11 12 13 14 15 16 17 18 19 20 21 22 23 24 25 26 27 28 29 30 31 32 33 34 35 36 37 38 39 40 41 42 43 44 45 46 47 48 49 50
000
ASUS41 KLWX 252110
RWRLWX

REGIONAL WEATHER ROUNDUP
NATIONAL WEATHER SERVICE BALTIMORE MD/WASHINGTON DC
500 PM EDT MON JUL 25 2016

Note: "FAIR" indicates few or no clouds below 12,000 feet
with no significant weather and/or obstructions to visibility.
 TC=TEMPERATURE CELSIUS

 * =Non NWS site. Station does not report precipitation (e.g. rain,
    snow, etc.), thunder, or fog.

DCZ001-MDZ009-015-VAZ040>042-051-053>054-252200-
WASHINGTON METRO

CITY           SKY/WX    TMP DP  RH WIND       PRES   REMARKS
WASHINGTON NAT PTSUNNY   96  70  42 S14       29.84F HX 102
DULLES         PTSUNNY   99  68  36 SW13      29.85F HX 104
ANDREWS AFB    SUNNY     94  67  40 S15       29.85F HX  97
FT BELVOIR     FAIR      98  67  36 S12       29.85F HX 101
COLLEGE PARK*  FAIR      95  72  46 S8        29.84S HX 103
LEESBURG*      FAIR      97  73  46 SW7       29.88R HX 107
MANASSAS*      SUNNY     97  64  34 CALM      29.85F HX  99
GAITHERSBURG*  CLOUDY    95  72  46 SW6       29.89S HX 103

$$

MDZ006>007-011-014-252200-
BALTIMORE METRO

CITY           SKY/WX    TMP DP  RH WIND       PRES   REMARKS
BWI AIRPORT    PTSUNNY   96  73  47 S8        29.83F HX 105
MD SCIENCE CTR   N/A     98  71  41 MISG      29.83F HX 106
MARTIN STATE   MOSUNNY   91  81  70 S15       29.83F HX 110
ANNAPOLIS      MOSUNNY   95  74  50 S10G21    29.83F HX 105
FORT MEADE*    MOSUNNY   91  75  59 S6        29.86S HX 102

$$

MDZ012-015-019>023-252200-
MARYLAND EASTERN SHORE

CITY           SKY/WX    TMP DP  RH WIND       PRES   REMARKS
OCEAN CITY     SUNNY     88  78  72 S9        29.88F HX 101
SALISBURY      SUNNY     93  78  61 S10       29.87F HX 108
BAY BRIDGE AP* MOSUNNY   97  77  52 S7        29.84F HX 112
CAMBRIDGE*     CLOUDY    95  72  46 S5        29.85F HX 103
EASTON*        PTSUNNY   97  77  52 SW12      29.89F HX 112

$$

MDZ017>025-252200-
SOUTHERN MARYLAND

CITY           SKY/WX    TMP DP  RH WIND       PRES   REMARKS
PATUXENT RIVER PTSUNNY   99  64  31 SW15G23   29.85F HX 101
ST INIGOES     SUNNY     99  70  38 SW13G21   29.86F HX 106
LEONARDTOWN*   SUNNY     97  64  34 SW14      29.88S HX  99

$$

MDZ003>005-252200-
NORTH CENTRAL MARYLAND

CITY           SKY/WX    TMP DP  RH WIND       PRES   REMARKS
FREDERICK*     PTSUNNY   88  72  58 NW12      29.90R THUNDER HX  94
HAGERSTOWN APT PTSUNNY   92  69  47 SE9       29.87S HX  97

$$

MDZ501>502-252200-
WESTERN MARYLAND

CITY           SKY/WX    TMP DP  RH WIND       PRES   REMARKS
OAKLAND*       CLOUDY    77  68  73 W7G17     30.07R
CUMBERLAND*    CLOUDY    93  64  38 W5G10     29.94R HX  95

$$

VAZ025>031-252200-
SHENANDOAH VALLEY

CITY           SKY/WX    TMP DP  RH WIND       PRES   REMARKS
WINCHESTER*    TSTM      72  68  88 NE12G38   29.95R VSB 1/2
FRONT ROYAL*   MOCLDY    88  72  58 W5        29.88S HX  94
LURAY*         FAIR      95  72  46 SW15      29.91F HX 103
NEW MARKET*    FAIR     N/A N/A N/A SW6       29.90F
STAUNTON*      FAIR      91  73  55 SW9       29.96S HX  99
WAYNESBORO*    FAIR      91  71  51 SW9G16    29.97F HX  98

$$

WVZ021-048>050-054>055-252200-
EASTERN WEST VIRGINIA PANHANDLE

CITY           SKY/WX    TMP DP  RH WIND       PRES   REMARKS
MARTINSBURG    FAIR      89  69  51 S8        29.88R HX  93
PETERSBURG*    FAIR      94  70  45 W7        29.91R HX 100

$$

VAZ036>039-050-252200-
CENTRAL FOOTHILLS

CITY           SKY/WX    TMP DP  RH WIND       PRES   REMARKS
CHARLOTTESVILL FAIR      97  72  44 SW9       29.90F HX 105
CULPEPER*      FAIR      94  72  48 SW9       29.88S HX 101
ORANGE*          N/A     93  73  52 CALM      29.91S HX 102
GORDONSVILLE*  FAIR      96  76  51 SW8       29.89S HX 109
WARRENTON*     FAIR      93  65  39 S8        29.87S HX  95

$$

VAZ055>057-252200-
NORTH AND CENTRAL PIEDMONT

CITY           SKY/WX    TMP DP  RH WIND       PRES   REMARKS
FREDERICKSBRG*   N/A     95  73  48 S8        29.86F HX 104
STAFFORD*      FAIR      95  69  42 SW10G17   29.91S HX 100

$$

NCZ024-NYZ072-PAZ021-071-VAZ022-071-252200-
OTHER REGIONAL OBSERVATIONS

CITY           SKY/WX    TMP DP  RH WIND       PRES   REMARKS
NEW YORK CITY  PTSUNNY   79  77  94 VRB5      29.87F FOG
PHILADELPHIA   CLOUDY    94  74  52 SW15      29.83F HX 104
PITTSBURGH     CLOUDY    89  70  53 NW12      29.92F HX  94
ROANOKE        PTSUNNY   94  71  47 S10       29.98F HX 101
RICHMOND       CLOUDY    94  73  50 SW13      29.89F HX 103
RALEIGH        PTSUNNY   92  74  55 SW10      29.95F HX 101

$$

ANZ530>537-252200-
MARINE OBSERVATIONS

STATION/POSITION TIME  TEMP    WIND        PRES
                       AIR SEA DIR/SP/G
                 (UTC) (F)     (DEG/KT/KT) (MB)
THOMAS PT LIGHT  2100   91 85  170/ 12/ 13 1011.6F
BALT KEY BRIDGE  2048   91     130/ 14/ 15 1009.6F
COVE POINT       2048   96     260/ 13/ 16 1011.5F
LEWISETTA        2048   96 88  240/ 13/ 16 1011.2F
SOLOMONS ISLAND  2048   95 85  210/ 13/ 16   N/A
PINEY POINT      2048          250/  8/ 14   N/A

$$




USA.gov is the U.S. government's official web portal to all federal, state and local government web resources and services.